Preview of NWS' New Version of Forecast
This preview is not operational and should not be used for support decisions.

Terminal Aerodrome Forecast (TAF)

Issued by National Weather Service (NWS)

                            
000
FTUS42 KCAE 212035 AAA
TAFOGB
TAF AMD
KOGB 212035Z 2121/2218 VRB03KT P6SM FEW050=